Location: ASU Dark Sky Observatory
(36.2504°N, 81.4125°W)
Time: 11:44:53
(UTC-05:00)

ETS-7 - Visible Passes

Search period start: 04 March 2015 00:00
Search period end: 14 March 2015 01:00
Orbit: 374 x 380 km, 35.0° (Epoch: 03 March)

Date Brightness Start Highest point End Pass type
(mag) Time Alt. Az. Time Alt. Az. Time Alt. Az.
04 Mar 3.0 20:01:46 10° W 20:04:18 42° SW 20:04:18 42° SW visible
05 Mar 2.3 18:58:52 10° W 19:01:57 61° S 19:04:46 12° ESE visible
05 Mar 5.2 20:36:13 10° WSW 20:36:48 13° WSW 20:36:48 13° WSW visible
06 Mar 3.2 19:33:03 10° W 19:35:56 34° SSW 19:37:14 23° SSE visible
07 Mar 4.5 20:07:42 10° WSW 20:09:40 15° SSW 20:09:40 15° SSW visible
08 Mar 4.0 20:04:04 10° WSW 20:06:39 24° SSW 20:09:13 10° SE visible
